Regional Weather Roundup
Issued by NWS

Home | Current Version | Previous Version | Graphics & Text | Print | Product List | Glossary On
Versions: 1 2 3 4 5 6 7 8 9 10 11 12 13 14 15 16 17 18 19 20 21 22 23 24 25 26 27 28 29 30 31 32 33 34 35 36 37 38 39 40 41 42 43 44 45 46 47 48 49 50
000
ASUS43 KMKX 261759
RWRWI

WISCONSIN REGIONAL WEATHER ROUNDUP
NATIONAL WEATHER SERVICE MILWAUKEE/SULLIVAN WI
1200 PM CST THU FEB 26 2015

NOTE: "FAIR" INDICATES FEW OR NO CLOUDS BELOW 12,000 FEET WITH NO
SIGNIFICANT WEATHER AND/OR OBSTRUCTIONS TO VISIBILITY.

WIZ001-002-006>008-014>016-023>028-261900-
NORTHWEST WISCONSIN

CITY           SKY/WX    TMP DP  RH WIND       PRES   REMARKS
SUPERIOR ARPT  SUNNY      5 -10  49 N6        30.46S WCI  -6
ASHLAND        CLOUDY     6  -7  54 NW7       30.41S WCI  -6
6HR MIN TEMP: -10; 6HR MAX TEMP:   7;

HAYWARD        CLOUDY     5  -9  52 VRB6      30.37S WCI  -6
6HR MIN TEMP: -24; 6HR MAX TEMP:   5;

SIREN          SUNNY      6 -10  47 N8        30.43R WCI  -7
CUMBERLAND     SUNNY      3  -9  55 N8        30.38S WCI -10
RICE LAKE      SUNNY      5  -8  54 N6        30.41S WCI  -6
6HR MIN TEMP: -11; 6HR MAX TEMP:   5;

CHETEK         SUNNY      5  -8  56 W5        30.40S WCI  -4
LADYSMITH      CLOUDY     7  -6  56 NW7       30.37S WCI  -5
6HR MIN TEMP: -17; 6HR MAX TEMP:   7;

EAU CLAIRE     NOT AVBL
MENOMONIE      SUNNY      8  -7  49 NW9       30.41F WCI  -5
6HR MIN TEMP:  -5; 6HR MAX TEMP:   8;

NEW RICHMOND   SUNNY      4  -8  56 NW8       30.44R WCI  -9
OSCEOLA        SUNNY      5  -9  53 N6        30.48S WCI  -6
$$

WIZ003>005-009-010-017-018-261900-
NORTH CENTRAL WISCONSIN

CITY           SKY/WX    TMP DP  RH WIND       PRES   REMARKS
MANITOWISH WTR CLOUDY     2  -8  60 NW12      30.28R WCI -14
ARBOR VITAE    MOSUNNY    4  -8  58 N8        30.27S WCI  -9
WOODRUFF       MOSUNNY    4  -8  58 N8        30.27S WCI  -9
RHINELANDER    SUNNY      4  -9  55 N9        30.26S WCI -10
6HR MIN TEMP: -13; 6HR MAX TEMP:   4;

EAGLE RIVER    MOSUNNY    3 -11  51 N12       30.25S WCI -13
LAND O LAKES   PTSUNNY    4  -9  55 NW8       30.26S WCI  -9
PHILLIPS       PTSUNNY    4  -9  55 N8        30.29F WCI -10
6HR MIN TEMP: -24; 6HR MAX TEMP:   4;

TOMAHAWK       MOSUNNY    5 -10  51 N9G16     30.29S WCI -10
MEDFORD        MOSUNNY    5  -8  55 NW13      30.29S WCI -12
MERRILL        SUNNY      6  -9  49 N10       30.29S WCI  -8
$$

WIZ029-030-035-036-043>047-261900-
CENTRAL WISCONSIN

CITY           SKY/WX    TMP DP  RH WIND       PRES   REMARKS
WAUSAU         SUNNY      6  -9  50 NW10      30.29S WCI  -9
6HR MIN TEMP:  -9; 6HR MAX TEMP:   6;

MOSINEE        SUNNY      7  -8  51 NW7       30.31S WCI  -5
MARSHFIELD     SUNNY      6  -8  52 NW14      30.32R WCI -11
6HR MIN TEMP:  -9; 6HR MAX TEMP:   6;

STEVENS POINT  SUNNY      5  -9  52 N10       30.32R WCI -10
WAUPACA        PTSUNNY   13  -6  43 CALM      30.33S
6HR MIN TEMP:  -3; 6HR MAX TEMP:  13;

WAUTOMA        NOT AVBL
WISC RAPIDS    SUNNY      8  -8  48 N12       30.34S WCI  -7
6HR MIN TEMP:  -6; 6HR MAX TEMP:   8;

CAMP DOUGLAS   NOT AVBL
$$

WIZ011>013-019>022-031-037>040-048>050-261900-
NORTHEAST WISCONSIN

CITY           SKY/WX    TMP DP  RH WIND       PRES   REMARKS
ANTIGO         SUNNY      4  -8  58 N12       30.26S WCI -13
SHAWANO        PTSUNNY   12  -6  44 CALM      30.33S
OCONTO         PTSUNNY    8  -6  55 N6        30.34S WCI  -3
STURGEON BAY   FAIR       5  -6  61 N13       30.34R WCI -12
6HR MIN TEMP:  -6; 6HR MAX TEMP:   5;

GREEN BAY      MOSUNNY   10  -4  53 N6        30.33S WCI   0
6HR MIN TEMP:  -3; 6HR MAX TEMP:  10;

MANITOWOC      NOT AVBL
APPLETON       MOSUNNY    9  -6  52 N14       30.32S WCI  -8
CLINTONVILLE   SUNNY     10  -6  48 N8        30.32S WCI  -1
OSHKOSH        SUNNY      9  -5  53 N13       30.32R WCI  -7
6HR MIN TEMP:  -1; 6HR MAX TEMP:   9;

$$

WIZ032>034-041-042-053>061-261900-
SOUTHWEST WISCONSIN

CITY           SKY/WX    TMP DP  RH WIND       PRES   REMARKS
LA CROSSE      PTSUNNY   11  -2  56 NW10      30.41S WCI  -3
6HR MIN TEMP:  -5; 6HR MAX TEMP:  11;

SPARTA         SUNNY     11  -4  50 N8        30.38S WCI  -1
VIROQUA        SUNNY      8  -5  54 N5        30.32S WCI   0
BOSCOBEL       SUNNY     14  -6  40 NE3       30.37S
6HR MIN TEMP:  -5; 6HR MAX TEMP:  14; 6HR PCP: TRACE;

PRAIRIE DU CHI SUNNY     10  -7  47 NW12      30.38S WCI  -5
PLATTEVILLE    SUNNY      8  -3  59 N10       30.32R WCI  -6
$$

WIZ056-057-062-063-064-067-068-261900-
SOUTH CENTRAL WISCONSIN

CITY           SKY/WX    TMP DP  RH WIND       PRES   REMARKS
REEDSBURG      SUNNY      8  -6  52 N10G16    30.33S WCI  -6
BARABOO/DELLS  SUNNY      9  -8  46 N7        30.31F WCI  -2
LONE ROCK      NOT AVBL
MINERAL POINT  SUNNY     12  -6  44 N8        30.29S WCI   1
MADISON        MOSUNNY   10  -5  50 N12       30.31S WCI  -5
6HR MIN TEMP:   0; 6HR MAX TEMP:  10;

MIDDLETON      SUNNY     11  -5  48 NW9G24    30.32S WCI  -1
WATERTOWN      SUNNY     11  -2  57 NW13G18   30.29S WCI  -5
MONROE         SUNNY     10   0  61 N10       30.28R WCI  -3
JANESVILLE     MOSUNNY   12  -4  48 N7        30.30R WCI   2
$$

WIZ051-052-058>065-066-070>072-261900-
SOUTHEAST WISCONSIN

CITY           SKY/WX    TMP DP  RH WIND       PRES   REMARKS
MILWAUKEE      PTSUNNY   14   0  53 NE14      30.27R WCI  -1
6HR MIN TEMP:   7; 6HR MAX TEMP:  14; 6HR PCP:  0.02;

WAUKESHA       NOT AVBL
MILWAUKEE/TIMM SUNNY     12  -4  48 N12       30.29R WCI  -2
RACINE         PTSUNNY   15   4  61 N16       30.28R WCI  -1
6HR MIN TEMP:   9; 6HR MAX TEMP:  15; 6HR PCP: TRACE;

BURLINGTON     PTSUNNY   14  -4  45 N8        30.26S WCI   3
KENOSHA        PTSUNNY   14   2  58 N10       30.26R WCI   1
6HR MIN TEMP:   9; 6HR MAX TEMP:  15; 6HR PCP: TRACE;

FOND DU LAC    SUNNY      9  -6  50 N14       30.32R WCI  -7
6HR MIN TEMP:   0; 6HR MAX TEMP:   9;

SHEBOYGAN      SUNNY     10  -6  48 N18       30.29R WCI  -8
6HR MIN TEMP:   0; 6HR MAX TEMP:  11;

WEST BEND      SUNNY     10  -6  48 NW12      30.28R WCI  -4
JUNEAU         SUNNY      8  -5  53 NW16      30.30S WCI  -9
$$

LSZ147-162-261900-
LAKE SUPERIOR

STATION/POSITION TIME  TEMP    WIND        PRES    WAVE
                       AIR SEA DIR/SP/G            HT/PER
                 (UTC) (F)     (DEG/KT/KT) (MB)    (FT/S)
DEVILS ISLAND    1700    2     300/  9/ 12 1032.3R
PORT WING        1700    4     310/  7/ 12 1030.8
SAXON HARBOR     1740    5     330/  7/  9 1030.1R
$$

LMZ867-665-643>646-261900-
LAKE MICHIGAN

STATION/POSITION TIME  TEMP    WIND        PRES    WAVE
                       AIR SEA DIR/SP/G            HT/PER
                 (UTC) (F)     (DEG/KT/KT) (MB)    (FT/S)
NORTHPORT PIER   1720    4     350/  7/ 15 1027.4R
SISTER BAY       1728   13     360/ 14/ 18   N/A
KEWAUNEE LAKESHO 1700    7      10/ 12/ 17 1025.7R
SHEBOYGAN LAKESH 1700    9     350/ 16/ 18 1027.3R
PORT WASHINGTON  1700   11     340/  9/ 14 1026.4R
MILWAUKEE LAKESH 1700   12      20/ 17/ 21   N/A
KENOSHA   LAKESH 1700   14     350/ 17/ 23 1024.0R
$$

TC  - TEMPERATURE IN CELSIUS
VSB - VISIBILITY IN STATUTE MILES
WCI - WIND CHILL INDEX
HX  - HEAT INDEX



USA.gov is the U.S. government's official web portal to all federal, state and local government web resources and services.